• In Netherlands
  • List of Countries
  • For 7 days
  • Water Temperature
  • Satellite Maps
  • Weather Map
  • Weather Widgets
  • user-avatar
    Login

    Hourly Weather Elbasan

    Today, 19 January, Friday

    Time Temperature Precipitation Wind Pressure Humidity
    00:00 +3°C° 0 mm 2 mps 736 mmHg 56%
    01:00 +3°C° 0 mm 2 mps 736 mmHg 60%
    02:00 +2°C° 0 mm 3 mps 736 mmHg 62%
    03:00 +2°C° 0 mm 3 mps 735 mmHg 64%
    04:00 +2°C° 0 mm 3 mps 735 mmHg 66%
    05:00 +2°C° 0 mm 3 mps 735 mmHg 66%
    06:00 +2°C° 0 mm 3 mps 735 mmHg 66%
    07:00 +2°C° 0 mm 3 mps 735 mmHg 66%
    08:00 +4°C° 0 mm 3 mps 735 mmHg 63%
    09:00 +7°C° 0 mm 3 mps 735 mmHg 60%
    10:00 +8°C° 0 mm 3 mps 735 mmHg 57%
    11:00 +9°C° 0 mm 3 mps 735 mmHg 58%
    12:00 +10°C° 0 mm 3 mps 734 mmHg 58%
    13:00 +11°C° 0 mm 3 mps 734 mmHg 59%
    14:00 +10°C° 0 mm 2 mps 734 mmHg 64%
    15:00 +9°C° 0 mm 2 mps 734 mmHg 68%
    16:00 +9°C° 0 mm 2 mps 734 mmHg 73%
    17:00 +8°C° 0 mm 2 mps 734 mmHg 75%
    18:00 +7°C° 0 mm 2 mps 734 mmHg 77%
    19:00 +6°C° 0 mm 2 mps 734 mmHg 80%
    20:00 +5°C° 0 mm 3 mps 733 mmHg 80%
    21:00 +5°C° 0 mm 3 mps 733 mmHg 81%
    22:00 +5°C° 0 mm 3 mps 733 mmHg 82%
    23:00 +5°C° 0 mm 3 mps 733 mmHg 83%

    Tomorrow, 20 January, Saturday

    Time Temperature Precipitation Wind Pressure Humidity
    00:00 +5°C° 0 mm 3 mps 733 mmHg 84%
    01:00 +5°C° 0 mm 3 mps 733 mmHg 85%
    02:00 +7°C° 0 mm 3 mps 732 mmHg 85%
    03:00 +7°C° 0 mm 3 mps 732 mmHg 86%
    04:00 +7°C° 0 mm 3 mps 732 mmHg 87%
    05:00 +7°C° 0.1 mm 3 mps 732 mmHg 87%
    06:00 +7°C° 0.1 mm 3 mps 731 mmHg 88%
    07:00 +7°C° 0.1 mm 3 mps 731 mmHg 88%
    08:00 +8°C° 0.4 mm 3 mps 731 mmHg 88%
    09:00 +9°C° 0.4 mm 3 mps 731 mmHg 89%
    10:00 +9°C° 0.4 mm 3 mps 731 mmHg 89%
    11:00 +10°C° 0.9 mm 4 mps 731 mmHg 88%
    12:00 +10°C° 0.9 mm 4 mps 730 mmHg 86%
    13:00 +10°C° 0.9 mm 4 mps 730 mmHg 85%
    14:00 +10°C° 1.2 mm 4 mps 730 mmHg 87%
    15:00 +8°C° 1.2 mm 4 mps 730 mmHg 89%
    16:00 +9°C° 1.2 mm 3 mps 730 mmHg 92%
    17:00 +8°C° 0.2 mm 3 mps 731 mmHg 92%
    18:00 +8°C° 0.2 mm 2 mps 731 mmHg 93%
    19:00 +8°C° 0.2 mm 1 mps 732 mmHg 94%
    20:00 +8°C° 0 mm 1 mps 732 mmHg 94%
    21:00 +8°C° 0 mm 1 mps 732 mmHg 94%
    22:00 +7°C° 0 mm 1 mps 732 mmHg 94%
    23:00 +7°C° 0 mm 1 mps 732 mmHg 92%

    Day after tomorrow, 21 January, Sunday

    Time Temperature Precipitation Wind Pressure Humidity
    00:00 +7°C° 0 mm 1 mps 732 mmHg 91%
    01:00 +6°C° 0 mm 2 mps 732 mmHg 90%
    02:00 +6°C° 0 mm 2 mps 731 mmHg 89%
    03:00 +6°C° 0 mm 2 mps 731 mmHg 88%
    04:00 +6°C° 0 mm 2 mps 730 mmHg 86%
    05:00 +6°C° 0.1 mm 2 mps 730 mmHg 87%
    06:00 +6°C° 0.1 mm 2 mps 730 mmHg 87%
    07:00 +6°C° 0.1 mm 2 mps 730 mmHg 88%
    08:00 +7°C° 0.6 mm 2 mps 729 mmHg 88%
    09:00 +7°C° 0.6 mm 2 mps 729 mmHg 88%
    10:00 +8°C° 0.6 mm 2 mps 729 mmHg 88%
    11:00 +8°C° 0.9 mm 2 mps 728 mmHg 88%
    12:00 +8°C° 0.9 mm 2 mps 728 mmHg 88%
    13:00 +9°C° 0.9 mm 2 mps 727 mmHg 88%
    14:00 +9°C° 0.6 mm 2 mps 727 mmHg 89%
    15:00 +8°C° 0.6 mm 2 mps 727 mmHg 90%
    16:00 +8°C° 0.6 mm 2 mps 727 mmHg 90%
    17:00 +8°C° 0.1 mm 2 mps 728 mmHg 91%
    18:00 +7°C° 0.1 mm 2 mps 728 mmHg 93%
    19:00 +7°C° 0.1 mm 2 mps 729 mmHg 94%
    20:00 +7°C° 0 mm 2 mps 729 mmHg 94%
    21:00 +7°C° 0 mm 1 mps 729 mmHg 94%
    22:00 +7°C° 0 mm 1 mps 730 mmHg 94%
    23:00 +7°C° 0 mm 1 mps 730 mmHg 94%

    22 January, Monday

    Time Temperature Precipitation Wind Pressure Humidity
    00:00 +6°C° 0 mm 1 mps 730 mmHg 94%
    01:00 +6°C° 0 mm 1 mps 730 mmHg 94%
    02:00 +6°C° 0 mm 1 mps 730 mmHg 93%
    03:00 +6°C° 0 mm 1 mps 731 mmHg 92%
    04:00 +5°C° 0 mm 1 mps 731 mmHg 91%
    05:00 +5°C° 0 mm 1 mps 732 mmHg 89%
    06:00 +3°C° 0 mm 2 mps 732 mmHg 88%
    07:00 +3°C° 0 mm 2 mps 733 mmHg 86%
    08:00 +4°C° 0 mm 2 mps 733 mmHg 76%
    09:00 +5°C° 0 mm 2 mps 734 mmHg 66%
    10:00 +7°C° 0 mm 2 mps 734 mmHg 56%
    11:00 +7°C° 0 mm 2 mps 734 mmHg 52%
    12:00 +8°C° 0 mm 2 mps 734 mmHg 48%
    13:00 +8°C° 0 mm 2 mps 734 mmHg 44%
    14:00 +8°C° 0 mm 2 mps 735 mmHg 47%
    15:00 +7°C° 0 mm 2 mps 735 mmHg 51%
    16:00 +7°C° 0 mm 2 mps 735 mmHg 55%
    17:00 +6°C° 0 mm 2 mps 735 mmHg 57%
    18:00 +5°C° 0 mm 2 mps 736 mmHg 59%
    19:00 +4°C° 0 mm 2 mps 736 mmHg 62%
    20:00 +3°C° 0 mm 2 mps 736 mmHg 62%
    21:00 +3°C° 0 mm 2 mps 737 mmHg 63%
    22:00 +3°C° 0 mm 2 mps 737 mmHg 64%
    23:00 +4°C° 0 mm 1 mps 737 mmHg 63%

    23 January, Tuesday

    Time Temperature Precipitation Wind Pressure Humidity
    00:00 +4°C° 0 mm 1 mps 737 mmHg 63%
    01:00 +4°C° 0 mm 1 mps 737 mmHg 63%
    02:00 +4°C° 0 mm 1 mps 737 mmHg 61%
    03:00 +5°C° 0 mm 1 mps 737 mmHg 59%
    04:00 +5°C° 0 mm 1 mps 736 mmHg 58%
    05:00 +5°C° 0 mm 1 mps 737 mmHg 56%
    06:00 +5°C° 0 mm 1 mps 737 mmHg 54%
    07:00 +6°C° 0 mm 1 mps 737 mmHg 52%
    08:00 +7°C° 0.1 mm 1 mps 737 mmHg 51%
    09:00 +8°C° 0.1 mm 1 mps 738 mmHg 49%
    10:00 +9°C° 0.1 mm 1 mps 738 mmHg 47%
    11:00 +9°C° 0.1 mm 1 mps 738 mmHg 49%
    12:00 +9°C° 0.1 mm 2 mps 738 mmHg 50%
    13:00 +9°C° 0.1 mm 2 mps 738 mmHg 51%
    14:00 +9°C° 0 mm 2 mps 738 mmHg 55%
    15:00 +8°C° 0 mm 2 mps 738 mmHg 60%
    16:00 +9°C° 0 mm 1 mps 738 mmHg 64%
    17:00 +8°C° 0 mm 1 mps 739 mmHg 66%
    18:00 +7°C° 0 mm 1 mps 739 mmHg 69%
    19:00 +6°C° 0 mm 1 mps 740 mmHg 71%
    20:00 +6°C° 0 mm 1 mps 740 mmHg 71%
    21:00 +5°C° 0 mm 2 mps 741 mmHg 71%
    22:00 +4°C° 0 mm 2 mps 741 mmHg 72%
    23:00 +4°C° 0 mm 2 mps 741 mmHg 72%

    24 January, Wednesday

    Time Temperature Precipitation Wind Pressure Humidity
    00:00 +4°C° 0 mm 2 mps 741 mmHg 72%
    01:00 +4°C° 0 mm 2 mps 741 mmHg 72%
    02:00 +4°C° 0 mm 2 mps 741 mmHg 72%
    03:00 +4°C° 0 mm 2 mps 741 mmHg 72%
    04:00 +4°C° 0 mm 2 mps 741 mmHg 72%
    05:00 +4°C° 0 mm 2 mps 742 mmHg 72%
    06:00 +4°C° 0 mm 2 mps 742 mmHg 71%
    07:00 +5°C° 0 mm 1 mps 742 mmHg 70%
    08:00 +7°C° 0 mm 1 mps 742 mmHg 65%
    09:00 +9°C° 0 mm 1 mps 742 mmHg 60%
    10:00 +11°C° 0 mm 1 mps 742 mmHg 55%
    11:00 +12°C° 0 mm 1 mps 742 mmHg 55%
    12:00 +12°C° 0 mm 2 mps 742 mmHg 54%
    13:00 +13°C° 0 mm 2 mps 742 mmHg 53%
    14:00 +12°C° 0 mm 2 mps 742 mmHg 59%
    15:00 +10°C° 0 mm 2 mps 742 mmHg 65%
    16:00 +9°C° 0 mm 2 mps 742 mmHg 70%
    17:00 +8°C° 0 mm 2 mps 742 mmHg 73%
    18:00 +7°C° 0 mm 2 mps 742 mmHg 75%
    19:00 +7°C° 0 mm 1 mps 742 mmHg 77%
    20:00 +7°C° 0 mm 1 mps 742 mmHg 77%
    21:00 +7°C° 0 mm 1 mps 742 mmHg 77%
    22:00 +6°C° 0 mm 1 mps 742 mmHg 77%
    23:00 +5°C° 0 mm 2 mps 742 mmHg 77%
    Show more